www.pogodaiklimat.ru

Погода и климат >> Архив погоды >> Россия >> Якутия >> Томпо


АРХИВ ПОГОДЫ в Томпо

Время (UTC), дата Ветер
(напр.,м/с)
 
Видим.   Явления Облачность Т
(С)
Тd
(С)
f
(%)
Тe
(С)
Тes
(С)
Комфортность P
(гПа)
Po
(гПа)
Тmin
(С)
Tmax
(С)
R
(мм)
R24
(мм)
S
(см)
03 19.04 С 3 50 км 3/0
[Ci fib]
-7.6 -16.6 48 -13 -6 1021.1 969.9
06 19.04 С 2 50 км 3/0
[Ci fib]
-3.8 -14.8 42 -7 -2 1018.7 968.2
09 19.04 С 1 50 км 3/0
[Ci fib]
-3.4 -14.0 44 -5 -4 1017.8 967.5 -3.0
12 19.04 С 1 50 км 3/0
[Ci fib]
-11.1 -18.4 55 -13 -13 1019.4 967.5
15 19.04 С 1 50 км 3/0
[Ci fib]
-16.8 -20.2 75 -20 -20 1021.2 968.1
18 19.04 С 1 50 км 1/0
[Ci fib]
-19.9 -22.5 80 -23 -23 1022.5 968.7
21 19.04 СЗ 1 50 км 3/0
[Ci fib]
-25.2 -27.7 80 -29 -28 1024.3 969.3 -25.4 36
00 20.04 СЗ 2 50 км 8/0
[Ac trans Cs]
-15.2 -20.3 65 -20 -16 1021.9 969.1
03 20.04 С 2 50 км 9/0
[Ac trans Cs]
-8.1 -17.5 47 -12 -6 1018.1 966.9
06 20.04 С 2 50 км 9/0
[Ac trans Cs]
-3.2 -15.5 38 -6 -3 1014.1 964.0
09 20.04 С 1 50 км 10/0
[Ac trans Cs]
-1.7 -13.1 41 -3 -2 1011.6 961.8 -1.4
12 20.04 штиль 0 50 км 10/0
[Ac und]
-3.0 -12.2 49 -3 -3 1011.7 961.7
15 20.04 штиль 0 50 км 10/0
[Ac und]
-4.2 -11.6 56 -5 -5 1012.0 961.8
18 20.04 штиль 0 10 км слаб. снег 10/0
[Ac As]
-7.6 -10.9 77 -8 -8 1012.4 961.6
21 20.04 штиль 0 50 км в посл. час снег 8/0
[Ac As]
-6.6 -9.0 83 -7 -7 1011.4 960.9 -8.0 0.5 36
00 21.04 штиль 0 4000 м снег 10/10 300 м
[Frnb Ns]
-4.0 -7.0 80 -5 -5 1010.3 960.2
03 21.04 Ю 3 50 км {снег} 9/5 1000 м
[Sc Ac trans Ci fib]
+1.6 -5.9 57 -2 0 1008.4 959.4
06 21.04 Ю 2 50 км {снег} 9/8 600 м
[Cu Sc Ci fib]
+3.8 -6.6 47 +2 +3 1006.8 958.3
09 21.04 Ю 2 50 км 8/5 600 м
[Cu Sc Cc]
+5.4 -8.1 37 +4 +4 1006.3 958.1 +5.9 0.4
12 21.04 Ю 1 50 км 10/10 1000 м
[Sc]
+2.2 -7.0 51 +1 +1 1008.1 959.3
15 21.04 Ю 3 50 км 10/10 1000 м
[Sc]
+0.9 -7.1 55 -3 -3 1008.9 959.7
18 21.04 штиль 0 50 км 8/3 1000 м
[Sc Ac trans Ci fib]
-1.3 -5.7 72 -2 -2 1009.6 960.1
21 21.04 штиль 0 50 км 6/3 1000 м
[Sc Ci fib]
-3.6 -6.1 83 -5 -4 1010.1 960.2 -3.8 34
00 22.04 штиль 0 50 км 8/4 1000 м
[Sc Ci fib]
-0.7 -4.8 74 -2 +3 1009.6 960.2 -4.1
03 22.04 Ю 3 50 км 9/5 1000 м
[Sc Ac trans Ci fib]
+3.0 -5.8 52 -0 +2 1008.3 959.5
06 22.04 Ю 3 50 км 9/6 1000 м
[Sc Ac trans Ci fib]
+2.8 -6.5 50 -1 +1 1008.4 959.6
09 22.04 Ю 2 50 км 9/6 600 м
[Cu Sc Cc]
+2.5 -7.8 47 0 0 1008.3 959.5 +4.7
12 22.04 штиль 0 50 км 8/3 1000 м
[Sc Cs]
-1.3 -7.6 62 -2 -2 1009.9 960.4
15 22.04 штиль 0 50 км 9/5 1000 м
[Sc Ac trans Ci fib]
-3.2 -6.7 77 -4 -4 1010.8 960.9
18 22.04 штиль 0 10 км слаб. снег 9/3 1000 м
[Sc Ac As]
-5.6 -8.2 82 -6 -6 1011.5 961.1
21 22.04 штиль 0 10 км слаб. снег 10/4 1000 м
[Sc Ac As]
-5.7 -7.9 84 -7 -6 1011.8 961.4 -6.1 0.3 32
00 23.04 штиль 0 4000 м слаб. ливневой снег 10/6 600 м
[Cb cap Ac As]
-2.6 -5.6 80 -4 -3 1011.6 961.8
03 23.04 штиль 0 50 км {ливн. осадки} 6/4 600 м
[Cu med, cong Ci fib]
+2.8 -6.1 52 +2 +9 1010.2 961.3
06 23.04 З 1 50 км {ливн. осадки} 8/5 600 м
[Cu med, cong Ci fib]
+4.4 -8.4 39 +4 +7 1009.7 961.1
09 23.04 З 1 50 км 6/3 600 м
[Cu med, cong Ac trans Ci fib]
+3.2 -8.1 43 +3 +3 1010.6 961.9 +5.6 0.3
12 23.04 штиль 0 50 км 3/0
[Ac trans]
-1.2 -9.6 53 -2 -2 1012.8 963.1
15 23.04 штиль 0 50 км 1/0
[Ac trans]
-8.3 -11.5 78 -9 -9 1015.4 964.3
18 23.04 штиль 0 50 км ясно -12.5 -14.5 85 -13 -13 1017.5 965.5
21 23.04 штиль 0 50 км ясно -14.8 -17.5 80 -15 -13 1019.2 966.6 -15.0 30
00 24.04 ЮВ 1 50 км 1/0
[Ci fib]
-5.9 -11.7 64 -8 -1 1017.6 966.8
03 24.04 Ю 1 50 км 4/0
[Ac trans Cc]
+1.1 -7.6 52 -0 +9 1015.5 966.0
06 24.04 Ю 2 50 км 8/5 600 м
[Cu Sc Cc]
+2.7 -8.9 42 0 +3 1014.5 965.4
09 24.04 ЮЗ 2 50 км 8/4 600 м
[Cu Sc Cc]
+1.7 -9.1 45 -1 -0 1014.3 965.0 +4.3
12 24.04 ЮВ 1 50 км 8/3 1000 м
[Sc Ci fib]
-1.1 -9.9 51 -3 -3 1015.1 965.2
15 24.04 штиль 0 50 км 9/5 1000 м
[Sc Cs]
-4.0 -9.8 64 -5 -5 1015.4 965.0
18 24.04 штиль 0 50 км 9/5 1000 м
[Sc Cs]
-5.8 -10.1 72 -6 -6 1014.9 964.2
21 24.04 С 1 50 км 6/3 1000 м
[Sc Cc]
-6.5 -11.1 70 -9 -8 1014.5 963.8 -6.6 27
00 25.04 Ю 1 50 км 9/3 1000 м
[Sc Ac trans Cc]
+0.5 -7.7 54 -1 +2 1012.2 962.9
03 25.04 Ю 2 50 км 9/5 1000 м
[Sc Ac trans Ci fib]
+3.2 -7.6 45 +1 +4 1011.1 962.4
06 25.04 ЮЗ 1 50 км 9/6 600 м
[Cu Sc Ac trans Ci fib]
+5.6 -5.5 45 +5 +7 1010.1 961.7
09 25.04 Ю 1 50 км 9/6 600 м
[Cu Sc Ac trans]
+4.0 -6.3 47 +3 +4 1010.2 961.5 +6.1
12 25.04 штиль 0 50 км 9/3 1000 м
[Sc Ac trans Ci fib]
+1.6 -5.6 59 +1 +1 1010.6 961.5
15 25.04 ЮВ 1 50 км 8/3 1000 м
[Sc Ac trans Ci fib]
-0.8 -5.0 73 -3 -3 1010.6 961.1
18 25.04 ЮВ 1 50 км 6/1 1000 м
[Sc Ac trans Ci fib]
-3.3 -6.1 81 -5 -5 1009.9 960.0
21 25.04 штиль 0 50 км 4/1 1000 м
[Sc Ci fib]
-6.4 -8.8 83 -7 -6 1010.2 959.7 -6.6 25
00 26.04 штиль 0 50 км 8/3 1000 м
[Sc Ac trans Ci fib]
+0.4 -5.1 67 -0 +4 1007.8 958.7

 

Местоположение метеостанции Томпо (Якутия, Россия): широта 63.95 долгота 135.80 высота над уровнем моря 402 м.

В архиве по умолчанию представлена погода в Томпо за последнюю неделю. Архивные данные за месяц целиком и за предыдущие месяцы, начиная с января 2011 года, Вы можете получить, выбрав интересующий диапазон дат из раскрывающегося списка и нажав кнопку "Ввод!".


*Определитесь, кто Вы:
робот инопланетянин человек

Внимание! Время в таблицах - всемирное. Для получения местного времени необходимо прибавить поправку, которая равна 9 ч.

Смотрите также архив погоды в соседних городах и на ближайших метеорологических станциях:

Погода в Теплом Ключе (Якутия, Россия) (139 км)
Погода в Крест-Хальджае (Якутия, Россия) (144 км)
Погода в Иэме (Якутия, Россия) (150 км)
Погода в Верхоянском Перевозе (Якутия, Россия) (200 км)
Погода в Восточной (Якутия, Россия) (204 км)
Погода в Ытык-Кюёле (Якутия, Россия) (210 км)
Погода в Охотском Перевозе (Якутия, Россия) (232 км)
Погода в Чурапче (Якутия, Россия) (268 км)
Погода в Сеген-Кюеле (Якутия, Россия) (268 км)
Погода в Юртах (Якутия, Россия) (293 км)

Пояснения к столбцам:

Ветер - указаны скорость ветра в м/с - средняя за 10 мин, порывы в срок и между сроками (в фигурных скобках) и направление, откуда дует ветер: С - северный, СВ - северо-восточный, В - восточный, ЮВ - юго-восточный, Ю - южный, ЮЗ - юго-западный, З - западный, СЗ - северо-западный.
Видимость - горизонтальная дальность видимости в метрах или километрах. При видимости от 1 до 10 км при отсутствии осадков обычно наблюдается дымка, при ухудшении видимости до 1 км и менее - туман. В сухую погоду видимость может ухудшаться дымом, пылью или мглою.
Явления - указаны атмосферные явления, наблюдавшиеся в срок или в последний час перед сроком; фигурными скобками обозначены явления, наблюдавшиеся между сроками (за 1-3 часа до срока); квадратными скобками обозначены град или гололедные отложения с указанием их диаметра в мм.
Облачность - указаны через наклонную черту общая и нижняя облачность в баллах и высота нижней границы облаков в метрах; квадратными скобками обозначены формы облаков: Ci - перистые, Cs - перисто-слоистые, Cc - перисто-кучевые, Ac - высококучевые, As - высокослоистые, Sc - слоисто-кучевые, Ns - слоисто-дождевые, Cu - кучевые, Cb - кучево-дождевые. Подробнее классификацию облаков см. в Атласе облаков (PDF).
T - Температура воздуха - температура, измеренная на высоте 2 м над землей.
Td - Температура точки росы - температура, при понижении до которой содержащийся в воздухе водяной пар достигнет насыщения.
f - Относительная влажность воздуха - влажноcть воздуха, измеренная на высоте 2 м над землей.
Te - Эффективная температура - температура, которую ощущает одетый по сезону человек в тени. Характеристика душности погоды. При расчете учитывается влияние влажности воздуха и скорости ветра на теплоощущения человека.
Tes - Эффективная температура на солнце - температура, которую ощущает человек, с поправкой на солнечный нагрев. Характеристика знойности погоды. Зависит от высоты солнца над горизонтом, облачности и скорости ветра. Ночью, в пасмурную погоду, а также при ветре 12 м/с и более поправка равна нулю.
P - Атмосферное давление - приведенное к уровню моря атмосферное давление.
Po - Атмосферное давление - измеренное на уровне метеостанции атмосферное давление.
Tmin - Минимальная температура - минимум температуры воздуха на высоте 2 м над землей.
Tmax - Максимальная температура - максимум температуры воздуха на высоте 2 м над землей.
R - Количество осадков - Количество выпавших осадков за период времени, мм. При наведении курсора мыши на число - период времени, за который выпало указанное количество осадков.
R24 - Количество осадков - Количество выпавших осадков за 24 часа, мм.
S - Снежный покров - Высота снежного покрова, см. При наведении курсора мыши на число - состояние снежного покрова и степень покрытия местности в баллах.